Year,Month,Day,Hour,Minute,Value (Times are PST for temperature in C)
2012,10,14,00,00,12.60
2012,10,14,00,01,12.60
2012,10,14,00,02,12.60
2012,10,14,00,03,12.60
2012,10,14,00,04,12.60
2012,10,14,00,05,12.60
2012,10,14,00,06,12.60
2012,10,14,00,07,12.60
2012,10,14,00,08,12.60
2012,10,14,00,09,12.60
2012,10,14,00,10,12.50
2012,10,14,00,11,12.50
2012,10,14,00,12,12.50
2012,10,14,00,13,12.50
2012,10,14,00,14,12.50
2012,10,14,00,15,12.50
2012,10,14,00,16,12.50
2012,10,14,00,17,12.50
2012,10,14,00,18,12.50
2012,10,14,00,19,12.50
2012,10,14,00,20,12.50
2012,10,14,00,21,12.50
2012,10,14,00,22,12.50
2012,10,14,00,23,12.50
2012,10,14,00,24,12.50
2012,10,14,00,25,12.50
2012,10,14,00,26,12.50
2012,10,14,00,27,12.50
2012,10,14,00,28,12.40
2012,10,14,00,29,12.40
2012,10,14,00,30,12.40
2012,10,14,00,31,12.40
2012,10,14,00,32,12.40
2012,10,14,00,33,12.40
2012,10,14,00,34,12.40
2012,10,14,00,35,12.40
2012,10,14,00,36,12.40
2012,10,14,00,37,12.40
2012,10,14,00,38,12.40
2012,10,14,00,39,12.50
2012,10,14,00,40,12.50
2012,10,14,00,41,12.50
2012,10,14,00,42,12.40
2012,10,14,00,43,12.40
2012,10,14,00,44,12.40
2012,10,14,00,45,12.40
2012,10,14,00,46,12.40
2012,10,14,00,47,12.30
2012,10,14,00,48,12.30
2012,10,14,00,49,12.30
2012,10,14,00,50,12.40
2012,10,14,00,51,12.40
2012,10,14,00,52,12.40
2012,10,14,00,53,12.40
2012,10,14,00,54,12.40
2012,10,14,00,55,12.40
2012,10,14,00,56,12.40
2012,10,14,00,57,12.40
2012,10,14,00,58,12.40
2012,10,14,00,59,12.40
2012,10,14,01,00,12.40
2012,10,14,01,01,12.40
2012,10,14,01,02,12.40
2012,10,14,01,03,12.40
2012,10,14,01,04,12.40
2012,10,14,01,05,12.40
2012,10,14,01,06,12.40
2012,10,14,01,07,12.40
2012,10,14,01,08,12.40
2012,10,14,01,09,12.40
2012,10,14,01,10,12.40
2012,10,14,01,11,12.40
2012,10,14,01,12,12.40
2012,10,14,01,13,12.40
2012,10,14,01,14,12.40
2012,10,14,01,15,12.40
2012,10,14,01,16,12.40
2012,10,14,01,17,12.40
2012,10,14,01,18,12.40
2012,10,14,01,19,12.40
2012,10,14,01,20,12.40
2012,10,14,01,21,12.40
2012,10,14,01,22,12.40
2012,10,14,01,23,12.40
2012,10,14,01,24,12.40
2012,10,14,01,25,12.40
2012,10,14,01,26,12.40
2012,10,14,01,27,12.40
2012,10,14,01,28,12.40
2012,10,14,01,29,12.40
2012,10,14,01,30,12.40
2012,10,14,01,31,12.40
2012,10,14,01,32,12.40
2012,10,14,01,33,12.40
2012,10,14,01,34,12.40
2012,10,14,01,35,12.40
2012,10,14,01,36,12.40
2012,10,14,01,37,12.40
2012,10,14,01,38,12.40
2012,10,14,01,39,12.40
2012,10,14,01,40,12.40
2012,10,14,01,41,12.40
2012,10,14,01,42,12.40
2012,10,14,01,43,12.30
2012,10,14,01,44,12.30
2012,10,14,01,45,12.30
2012,10,14,01,46,12.30
2012,10,14,01,47,12.30
2012,10,14,01,48,12.30
2012,10,14,01,49,12.30
2012,10,14,01,50,12.30
2012,10,14,01,51,12.30
2012,10,14,01,52,12.30
2012,10,14,01,53,12.30
2012,10,14,01,54,12.30
2012,10,14,01,55,12.30
2012,10,14,01,56,12.30
2012,10,14,01,57,12.30
2012,10,14,01,58,12.30
2012,10,14,01,59,12.30
2012,10,14,02,00,12.30
2012,10,14,02,01,12.30
2012,10,14,02,02,12.30
2012,10,14,02,03,12.30
2012,10,14,02,04,12.30
2012,10,14,02,05,12.30
2012,10,14,02,06,12.30
2012,10,14,02,07,12.30
2012,10,14,02,08,12.20
2012,10,14,02,09,12.20
2012,10,14,02,10,12.20
2012,10,14,02,11,12.20
2012,10,14,02,12,12.20
2012,10,14,02,13,12.30
2012,10,14,02,14,12.30
2012,10,14,02,15,12.30
2012,10,14,02,16,12.30
2012,10,14,02,17,12.30
2012,10,14,02,18,12.30
2012,10,14,02,19,12.30
2012,10,14,02,20,12.30
2012,10,14,02,21,12.30
2012,10,14,02,22,12.30
2012,10,14,02,23,12.30
2012,10,14,02,24,12.30
2012,10,14,02,25,12.30
2012,10,14,02,26,12.30
2012,10,14,02,27,12.30
2012,10,14,02,28,12.30
2012,10,14,02,29,12.30
2012,10,14,02,30,12.30
2012,10,14,02,31,12.30
2012,10,14,02,32,12.30
2012,10,14,02,33,12.30
2012,10,14,02,34,12.30
2012,10,14,02,35,12.30
2012,10,14,02,36,12.30
2012,10,14,02,37,12.30
2012,10,14,02,38,12.30
2012,10,14,02,39,12.30
2012,10,14,02,40,12.30
2012,10,14,02,41,12.30
2012,10,14,02,42,12.30
2012,10,14,02,43,12.30
2012,10,14,02,44,12.30
2012,10,14,02,45,12.30
2012,10,14,02,46,12.30
2012,10,14,02,47,12.40
2012,10,14,02,48,12.40
2012,10,14,02,49,12.40
2012,10,14,02,50,12.40
2012,10,14,02,51,12.50
2012,10,14,02,52,12.50
2012,10,14,02,53,12.50
2012,10,14,02,54,12.50
2012,10,14,02,55,12.50
2012,10,14,02,56,12.50
2012,10,14,02,57,12.60
2012,10,14,02,58,12.60
2012,10,14,02,59,12.60
2012,10,14,03,00,12.60
2012,10,14,03,01,12.60
2012,10,14,03,02,12.60
2012,10,14,03,03,12.60
2012,10,14,03,04,12.60
2012,10,14,03,05,12.60
2012,10,14,03,06,12.60
2012,10,14,03,07,12.60
2012,10,14,03,08,12.60
2012,10,14,03,09,12.60
2012,10,14,03,10,12.60
2012,10,14,03,11,12.50
2012,10,14,03,12,12.50
2012,10,14,03,13,12.50
2012,10,14,03,14,12.50
2012,10,14,03,15,12.40
2012,10,14,03,16,12.40
2012,10,14,03,17,12.40
2012,10,14,03,18,12.40
2012,10,14,03,19,12.40
2012,10,14,03,20,12.40
2012,10,14,03,21,12.40
2012,10,14,03,22,12.30
2012,10,14,03,23,12.30
2012,10,14,03,24,12.30
2012,10,14,03,25,12.30
2012,10,14,03,26,12.30
2012,10,14,03,27,12.30
2012,10,14,03,28,12.30
2012,10,14,03,29,12.30
2012,10,14,03,30,12.30
2012,10,14,03,31,12.30
2012,10,14,03,32,12.30
2012,10,14,03,33,12.30
2012,10,14,03,34,12.30
2012,10,14,03,35,12.30
2012,10,14,03,36,12.30
2012,10,14,03,37,12.30
2012,10,14,03,38,12.30
2012,10,14,03,39,12.30
2012,10,14,03,40,12.30
2012,10,14,03,41,12.40
2012,10,14,03,42,12.40
2012,10,14,03,43,12.40
2012,10,14,03,44,12.40
2012,10,14,03,45,12.40
2012,10,14,03,46,12.40
2012,10,14,03,47,12.40
2012,10,14,03,48,12.40
2012,10,14,03,49,12.50
2012,10,14,03,50,12.50
2012,10,14,03,51,12.50
2012,10,14,03,52,12.50
2012,10,14,03,53,12.50
2012,10,14,03,54,12.40
2012,10,14,03,55,12.40
2012,10,14,03,56,12.40
2012,10,14,03,57,12.30
2012,10,14,03,58,12.30
2012,10,14,03,59,12.30
2012,10,14,04,00,12.30
2012,10,14,04,01,12.30
2012,10,14,04,02,12.30
2012,10,14,04,03,12.30
2012,10,14,04,04,12.30
2012,10,14,04,05,12.30
2012,10,14,04,06,12.30
2012,10,14,04,07,12.30
2012,10,14,04,08,12.40
2012,10,14,04,09,12.40
2012,10,14,04,10,12.40
2012,10,14,04,11,12.40
2012,10,14,04,12,12.40
2012,10,14,04,13,12.40
2012,10,14,04,14,12.40
2012,10,14,04,15,12.40
2012,10,14,04,16,12.40
2012,10,14,04,17,12.40
2012,10,14,04,18,12.40
2012,10,14,09,06,12.30
2012,10,14,09,07,12.30
2012,10,14,09,08,12.30
2012,10,14,09,09,12.20
2012,10,14,09,10,12.20
2012,10,14,09,11,12.20
2012,10,14,09,12,12.20
2012,10,14,09,13,12.20
2012,10,14,09,14,12.20
2012,10,14,09,15,12.30
2012,10,14,09,16,12.30
2012,10,14,09,17,12.30
2012,10,14,09,18,12.30
2012,10,14,09,19,12.30
2012,10,14,09,20,12.30
2012,10,14,09,21,12.30
2012,10,14,09,22,12.30
2012,10,14,09,23,12.30
2012,10,14,09,24,12.30
2012,10,14,09,25,12.30
2012,10,14,09,26,12.30
2012,10,14,09,27,12.30
2012,10,14,09,28,12.30
2012,10,14,09,29,12.30
2012,10,14,09,30,12.40
2012,10,14,09,31,12.40
2012,10,14,09,32,12.40
2012,10,14,09,33,12.40
2012,10,14,09,34,12.40
2012,10,14,09,35,12.40
2012,10,14,09,36,12.40
2012,10,14,09,37,12.40
2012,10,14,09,38,12.40
2012,10,14,09,39,12.40
2012,10,14,09,40,12.50
2012,10,14,09,41,12.50
2012,10,14,09,42,12.50
2012,10,14,09,43,12.50
2012,10,14,09,44,12.50
2012,10,14,09,45,12.50
2012,10,14,09,46,12.50
2012,10,14,09,47,12.60
2012,10,14,09,48,12.60
2012,10,14,09,49,12.60
2012,10,14,09,50,12.60
2012,10,14,09,51,12.60
2012,10,14,09,52,12.60
2012,10,14,09,53,12.60
2012,10,14,09,54,12.60
2012,10,14,09,55,12.70
2012,10,14,09,56,12.70
2012,10,14,09,57,12.70
2012,10,14,09,58,12.70
2012,10,14,09,59,12.70
2012,10,14,10,00,12.70
2012,10,14,10,01,12.70
2012,10,14,10,02,12.70
2012,10,14,10,03,12.70
2012,10,14,10,04,12.80
2012,10,14,10,05,12.80
2012,10,14,10,06,12.80
2012,10,14,10,07,12.80
2012,10,14,10,08,12.80
2012,10,14,10,09,12.80
2012,10,14,10,10,12.80
2012,10,14,10,11,12.80
2012,10,14,10,12,12.80
2012,10,14,10,13,12.80
2012,10,14,10,14,12.80
2012,10,14,10,15,12.80
2012,10,14,10,16,12.90
2012,10,14,10,17,12.90
2012,10,14,10,18,12.90
2012,10,14,10,19,12.90
2012,10,14,10,20,13.00
2012,10,14,10,21,13.00
2012,10,14,10,22,13.00
2012,10,14,10,23,13.00
2012,10,14,10,24,13.00
2012,10,14,10,25,13.00
2012,10,14,10,26,13.00
2012,10,14,10,27,13.10
2012,10,14,10,28,13.10
2012,10,14,10,29,13.10
2012,10,14,10,30,13.10
2012,10,14,10,31,13.10
2012,10,14,10,32,13.10
2012,10,14,10,33,13.20
2012,10,14,10,34,13.20
2012,10,14,10,35,13.20
2012,10,14,10,36,13.20
2012,10,14,10,37,13.20
2012,10,14,10,38,13.20
2012,10,14,10,39,13.30
2012,10,14,10,40,13.30
2012,10,14,10,41,13.30
2012,10,14,10,42,13.30
2012,10,14,10,43,13.30
2012,10,14,10,44,13.30
2012,10,14,10,45,13.30
2012,10,14,10,46,13.30
2012,10,14,10,47,13.30
2012,10,14,10,48,13.30
2012,10,14,10,49,13.30
2012,10,14,10,50,13.30
2012,10,14,10,51,13.30
2012,10,14,10,52,13.30
2012,10,14,10,53,13.30
2012,10,14,10,54,13.40
2012,10,14,10,55,13.40
2012,10,14,10,56,13.40
2012,10,14,10,57,13.40
2012,10,14,10,58,13.40
2012,10,14,10,59,13.40
2012,10,14,11,00,13.50
2012,10,14,11,01,13.50
2012,10,14,11,02,13.50
2012,10,14,11,03,13.50
2012,10,14,11,04,13.50
2012,10,14,11,05,13.50
2012,10,14,11,06,13.50
2012,10,14,11,07,13.50
2012,10,14,11,08,13.50
2012,10,14,11,09,13.50
2012,10,14,11,10,13.50
2012,10,14,11,11,13.50
2012,10,14,11,12,13.50
2012,10,14,11,13,13.50
2012,10,14,11,14,13.50
2012,10,14,11,15,13.50
2012,10,14,11,16,13.50
2012,10,14,11,17,13.50
2012,10,14,11,18,13.50
2012,10,14,11,19,13.50
2012,10,14,11,20,13.50
2012,10,14,11,21,13.50
2012,10,14,11,22,13.50
2012,10,14,11,23,13.50
2012,10,14,11,24,13.50
2012,10,14,11,25,13.50
2012,10,14,11,26,13.50
2012,10,14,11,27,13.50
2012,10,14,11,28,13.50
2012,10,14,11,29,13.50
2012,10,14,11,30,13.50
2012,10,14,11,31,13.50
2012,10,14,11,32,13.50
2012,10,14,11,33,13.50
2012,10,14,11,34,13.50
2012,10,14,11,35,13.50
2012,10,14,11,36,13.50
2012,10,14,11,37,13.50
2012,10,14,11,38,13.50
2012,10,14,11,39,13.50
2012,10,14,11,40,13.50
2012,10,14,11,41,13.50
2012,10,14,11,42,13.60
2012,10,14,11,43,13.60
2012,10,14,11,44,13.60
2012,10,14,11,45,13.60
2012,10,14,11,46,13.60
2012,10,14,11,47,13.70
2012,10,14,11,48,13.70
2012,10,14,11,49,13.70
2012,10,14,11,50,13.70
2012,10,14,11,51,13.70
2012,10,14,11,52,13.70
2012,10,14,11,53,13.70
2012,10,14,11,54,13.70
2012,10,14,11,55,13.70
2012,10,14,11,56,13.70
2012,10,14,11,57,13.70
2012,10,14,11,58,13.70
2012,10,14,11,59,13.70
2012,10,14,12,00,13.70
2012,10,14,12,01,13.70
2012,10,14,12,02,13.70
2012,10,14,12,03,13.70
2012,10,14,12,04,13.70
2012,10,14,12,05,13.70
2012,10,14,12,06,13.70
2012,10,14,12,07,13.70
2012,10,14,12,08,13.80
2012,10,14,12,09,13.80
2012,10,14,12,10,13.80
2012,10,14,12,11,13.80
2012,10,14,12,12,13.80
2012,10,14,12,13,13.80
2012,10,14,12,14,13.80
2012,10,14,12,15,13.80
2012,10,14,12,16,13.80
2012,10,14,12,17,13.90
2012,10,14,12,18,13.90
2012,10,14,12,19,13.90
2012,10,14,12,20,13.90
2012,10,14,12,21,13.90
2012,10,14,12,22,13.90
2012,10,14,12,23,13.90
2012,10,14,12,24,13.90
2012,10,14,12,25,13.90
2012,10,14,12,26,13.90
2012,10,14,12,27,13.90
2012,10,14,12,28,13.90
2012,10,14,12,29,13.90
2012,10,14,12,30,13.90
2012,10,14,12,31,13.90
2012,10,14,12,32,13.90
2012,10,14,12,33,13.80
2012,10,14,12,34,13.80
2012,10,14,12,35,13.80
2012,10,14,12,36,13.80
2012,10,14,12,37,13.80
2012,10,14,12,38,13.80
2012,10,14,12,39,13.80
2012,10,14,12,40,13.80
2012,10,14,12,41,13.80
2012,10,14,12,42,13.80
2012,10,14,12,43,13.80
2012,10,14,12,44,13.80
2012,10,14,12,45,13.80
2012,10,14,12,46,13.80
2012,10,14,12,47,13.80
2012,10,14,12,48,13.80
2012,10,14,12,49,13.80
2012,10,14,12,50,13.80
2012,10,14,12,51,13.70
2012,10,14,12,52,13.70
2012,10,14,12,53,13.70
2012,10,14,12,54,13.70
2012,10,14,12,55,13.70
2012,10,14,12,56,13.80
2012,10,14,12,57,13.80
2012,10,14,12,58,13.80
2012,10,14,12,59,13.80
2012,10,14,13,00,13.80
2012,10,14,13,01,13.80
2012,10,14,13,02,13.80
2012,10,14,13,03,13.80
2012,10,14,13,04,13.80
2012,10,14,13,05,13.80
2012,10,14,13,06,13.80
2012,10,14,13,07,13.90
2012,10,14,13,08,13.90
2012,10,14,13,09,13.90
2012,10,14,13,10,13.90
2012,10,14,13,11,13.90
2012,10,14,13,12,13.90
2012,10,14,13,13,13.90
2012,10,14,13,14,13.90
2012,10,14,13,15,13.90
2012,10,14,13,16,13.90
2012,10,14,13,17,13.90
2012,10,14,13,18,13.90
2012,10,14,13,19,13.90
2012,10,14,13,20,13.90
2012,10,14,13,21,13.90
2012,10,14,13,22,13.90
2012,10,14,13,23,13.90
2012,10,14,13,24,13.90
2012,10,14,13,25,13.90
2012,10,14,13,26,13.90
2012,10,14,13,27,13.90
2012,10,14,13,28,13.80
2012,10,14,13,29,13.80
2012,10,14,13,30,13.80
2012,10,14,13,31,13.80
2012,10,14,13,32,13.80
2012,10,14,13,33,13.80
2012,10,14,13,34,13.70
2012,10,14,13,35,13.70
2012,10,14,13,36,13.70
2012,10,14,13,37,13.70
2012,10,14,13,38,13.70
2012,10,14,13,39,13.70
2012,10,14,13,40,13.70
2012,10,14,13,41,13.70
2012,10,14,13,42,13.70
2012,10,14,13,43,13.80
2012,10,14,13,44,13.80
2012,10,14,13,45,13.80
2012,10,14,13,46,13.80
2012,10,14,13,47,13.80
2012,10,14,13,48,13.80
2012,10,14,13,49,13.80
2012,10,14,13,50,13.80
2012,10,14,13,51,13.80
2012,10,14,13,52,13.80
2012,10,14,13,53,13.80
2012,10,14,13,54,13.80
2012,10,14,13,55,13.80
2012,10,14,13,56,13.80
2012,10,14,13,57,13.90
2012,10,14,13,58,13.90
2012,10,14,13,59,13.90
2012,10,14,14,00,13.90
2012,10,14,14,01,13.90
2012,10,14,14,02,13.90
2012,10,14,14,03,13.90
2012,10,14,14,04,13.90
2012,10,14,14,05,13.90
2012,10,14,14,06,13.90
2012,10,14,14,07,13.90
2012,10,14,14,08,13.90
2012,10,14,14,09,14.00
2012,10,14,14,10,14.00
2012,10,14,14,11,14.00
2012,10,14,14,12,13.90
2012,10,14,14,13,13.90
2012,10,14,14,14,13.90
2012,10,14,14,15,13.90
2012,10,14,14,16,13.90
2012,10,14,14,17,13.90
2012,10,14,14,18,13.90
2012,10,14,14,19,13.90
2012,10,14,14,20,13.90
2012,10,14,14,21,13.90
2012,10,14,14,22,13.80
2012,10,14,14,23,13.80
2012,10,14,14,24,13.80
2012,10,14,14,25,13.70
2012,10,14,14,26,13.70
2012,10,14,14,27,13.70
2012,10,14,14,28,13.70
2012,10,14,14,29,13.70
2012,10,14,14,30,13.70
2012,10,14,14,31,13.70
2012,10,14,14,32,13.70
2012,10,14,14,33,13.70
2012,10,14,14,34,13.70
2012,10,14,14,35,13.70
2012,10,14,14,36,13.70
2012,10,14,14,37,13.70
2012,10,14,14,38,13.70
2012,10,14,14,39,13.70
2012,10,14,14,40,13.70
2012,10,14,14,41,13.70
2012,10,14,14,42,13.70
2012,10,14,14,43,13.80
2012,10,14,14,44,13.80
2012,10,14,14,45,13.80
2012,10,14,14,46,13.80
2012,10,14,14,47,13.80
2012,10,14,14,48,13.80
2012,10,14,14,49,13.90
2012,10,14,14,50,14.00
2012,10,14,14,51,14.00
2012,10,14,14,52,14.00
2012,10,14,14,53,14.10
2012,10,14,14,54,14.10
2012,10,14,14,55,14.10
2012,10,14,14,56,14.10
2012,10,14,14,57,14.00
2012,10,14,14,58,14.00
2012,10,14,14,59,14.00
2012,10,14,15,00,14.00
2012,10,14,15,01,14.00
2012,10,14,15,02,14.10
2012,10,14,15,03,14.10
2012,10,14,15,04,14.10
2012,10,14,15,05,14.10
2012,10,14,15,06,14.10
2012,10,14,15,07,14.10
2012,10,14,15,08,14.10
2012,10,14,15,09,14.10
2012,10,14,15,10,14.10
2012,10,14,15,11,14.10
2012,10,14,15,12,14.10
2012,10,14,15,13,14.10
2012,10,14,15,14,14.10
2012,10,14,15,15,14.20
2012,10,14,15,16,14.10
2012,10,14,15,17,14.10
2012,10,14,15,18,14.10
2012,10,14,15,19,14.10
2012,10,14,15,20,14.10
2012,10,14,15,21,14.20
2012,10,14,15,22,14.20
2012,10,14,15,23,14.20
2012,10,14,15,24,14.20
2012,10,14,15,25,14.20
2012,10,14,15,26,14.20
2012,10,14,15,27,14.20
2012,10,14,15,28,14.30
2012,10,14,15,29,14.30
2012,10,14,15,30,14.30
2012,10,14,15,31,14.30
2012,10,14,15,32,14.30
2012,10,14,15,33,14.30
2012,10,14,15,34,14.40
2012,10,14,15,35,14.40
2012,10,14,15,36,14.40
2012,10,14,15,37,14.50
2012,10,14,15,38,14.50
2012,10,14,15,39,14.50
2012,10,14,15,40,14.50
2012,10,14,15,41,14.50
2012,10,14,15,42,14.50
2012,10,14,15,43,14.50
2012,10,14,15,44,14.50
2012,10,14,15,45,14.40
2012,10,14,15,46,14.40
2012,10,14,15,47,14.40
2012,10,14,15,48,14.40
2012,10,14,15,49,14.40
2012,10,14,15,50,14.40
2012,10,14,15,51,14.40
2012,10,14,15,52,14.40
2012,10,14,15,53,14.40
2012,10,14,15,54,14.40
2012,10,14,15,55,14.40
2012,10,14,15,56,14.40
2012,10,14,15,57,14.40
2012,10,14,15,58,14.40
2012,10,14,15,59,14.40
2012,10,14,16,00,14.40
2012,10,14,16,01,14.30
2012,10,14,16,02,14.30
2012,10,14,16,03,14.30
2012,10,14,16,04,14.30
2012,10,14,16,05,14.30
2012,10,14,16,06,14.30
2012,10,14,16,07,14.30
2012,10,14,16,08,14.30
2012,10,14,16,09,14.30
2012,10,14,16,10,14.30
2012,10,14,16,11,14.30
2012,10,14,16,12,14.30
2012,10,14,16,13,14.30
2012,10,14,16,14,14.30
2012,10,14,16,15,14.30
2012,10,14,16,16,14.30
2012,10,14,16,17,14.30
2012,10,14,16,18,14.30
2012,10,14,16,19,14.30
2012,10,14,16,20,14.40
2012,10,14,16,21,14.40
2012,10,14,16,22,14.30
2012,10,14,16,23,14.30
2012,10,14,16,24,14.40
2012,10,14,16,25,14.40
2012,10,14,16,26,14.40
2012,10,14,16,27,14.40
2012,10,14,16,28,14.40
2012,10,14,16,29,14.40
2012,10,14,16,30,14.40
2012,10,14,16,31,14.40
2012,10,14,16,32,14.40
2012,10,14,16,33,14.40
2012,10,14,16,34,14.40
2012,10,14,16,35,14.40
2012,10,14,16,36,14.40
2012,10,14,16,37,14.40
2012,10,14,16,38,14.40
2012,10,14,16,39,14.40
2012,10,14,16,40,14.40
2012,10,14,16,41,14.40
2012,10,14,16,42,14.40
2012,10,14,16,43,14.40
2012,10,14,16,44,14.40
2012,10,14,16,45,14.40
2012,10,14,16,46,14.40
2012,10,14,16,47,14.40
2012,10,14,16,48,14.40
2012,10,14,16,49,14.40
2012,10,14,16,50,14.40
2012,10,14,16,51,14.40
2012,10,14,16,52,14.40
2012,10,14,16,53,14.50
2012,10,14,16,54,14.50
2012,10,14,16,55,14.50
2012,10,14,16,56,14.50
2012,10,14,16,57,14.50
2012,10,14,16,58,14.50
2012,10,14,16,59,14.50
2012,10,14,17,00,14.50
2012,10,14,17,01,14.50
2012,10,14,17,02,14.50
2012,10,14,17,03,14.50
2012,10,14,17,04,14.50
2012,10,14,17,05,14.50
2012,10,14,17,06,14.50
2012,10,14,17,07,14.50
2012,10,14,17,08,14.50
2012,10,14,17,09,14.50
2012,10,14,17,10,14.60
2012,10,14,17,11,14.60
2012,10,14,17,12,14.60
2012,10,14,17,13,14.60
2012,10,14,17,14,14.70
2012,10,14,17,15,14.70
2012,10,14,17,16,14.70
2012,10,14,17,17,14.70
2012,10,14,17,18,14.70
2012,10,14,17,19,14.70
2012,10,14,17,20,14.80
2012,10,14,17,21,14.80
2012,10,14,17,22,14.80
2012,10,14,17,23,14.80
2012,10,14,17,24,14.80
2012,10,14,17,25,14.80
2012,10,14,17,26,14.80
2012,10,14,17,27,14.80
2012,10,14,17,28,14.80
2012,10,14,17,29,14.80
2012,10,14,17,30,14.70
2012,10,14,17,31,14.70
2012,10,14,17,32,14.70
2012,10,14,17,33,14.70
2012,10,14,17,34,14.70
2012,10,14,17,35,14.70
2012,10,14,17,36,14.70
2012,10,14,17,37,14.70
2012,10,14,17,38,14.70
2012,10,14,17,39,14.70
2012,10,14,17,40,14.70
2012,10,14,17,41,14.70
2012,10,14,17,42,14.70
2012,10,14,17,43,14.70
2012,10,14,17,44,14.70
2012,10,14,17,45,14.70
2012,10,14,17,46,14.70
2012,10,14,17,47,14.70
2012,10,14,17,48,14.70
2012,10,14,17,49,14.70
2012,10,14,17,50,14.70
2012,10,14,17,51,14.70
2012,10,14,17,52,14.70
2012,10,14,17,53,14.70
2012,10,14,17,54,14.70
2012,10,14,17,55,14.70
2012,10,14,17,56,14.70
2012,10,14,17,57,14.70
2012,10,14,17,58,14.70
2012,10,14,17,59,14.70
2012,10,14,18,00,14.70
2012,10,14,18,01,14.70
2012,10,14,18,02,14.70
2012,10,14,18,03,14.70
2012,10,14,18,04,14.70
2012,10,14,18,05,14.70
2012,10,14,18,06,14.70
2012,10,14,18,07,14.70
2012,10,14,18,08,14.70
2012,10,14,18,09,14.70
2012,10,14,18,10,14.70
2012,10,14,18,11,14.70
2012,10,14,18,12,14.70
2012,10,14,18,13,14.70
2012,10,14,18,14,14.70
2012,10,14,18,15,14.60
2012,10,14,18,16,14.60
2012,10,14,18,17,14.60
2012,10,14,18,18,14.60
2012,10,14,18,19,14.60
2012,10,14,18,20,14.60
2012,10,14,18,21,14.60
2012,10,14,18,22,14.60
2012,10,14,18,23,14.60
2012,10,14,18,24,14.60
2012,10,14,18,25,14.60
2012,10,14,18,26,14.60
2012,10,14,18,27,14.60
2012,10,14,18,28,14.60
2012,10,14,18,29,14.60
2012,10,14,18,30,14.60
2012,10,14,18,31,14.60
2012,10,14,18,32,14.60
2012,10,14,18,33,14.60
2012,10,14,18,34,14.60
2012,10,14,18,35,14.60
2012,10,14,18,36,14.60
2012,10,14,18,37,14.60
2012,10,14,18,38,14.60
2012,10,14,18,39,14.60
2012,10,14,18,40,14.50
2012,10,14,18,41,14.50
2012,10,14,18,42,14.50
2012,10,14,18,43,14.40
2012,10,14,18,44,14.30
2012,10,14,18,45,14.20
2012,10,14,18,46,14.20
2012,10,14,18,47,14.20
2012,10,14,18,48,14.10
2012,10,14,18,49,14.10
2012,10,14,18,50,14.00
2012,10,14,18,51,14.00
2012,10,14,18,52,14.00
2012,10,14,18,53,13.90
2012,10,14,18,54,13.90
2012,10,14,18,55,13.90
2012,10,14,18,56,13.90
2012,10,14,18,57,13.90
2012,10,14,18,58,13.90
2012,10,14,18,59,13.90
2012,10,14,19,00,13.90
2012,10,14,19,01,13.90
2012,10,14,19,02,13.90
2012,10,14,19,03,13.90
2012,10,14,19,04,13.90
2012,10,14,19,05,13.90
2012,10,14,19,06,13.90
2012,10,14,19,07,13.80
2012,10,14,19,08,13.80
2012,10,14,19,09,13.80
2012,10,14,19,10,13.80
2012,10,14,19,11,13.80
2012,10,14,19,12,13.80
2012,10,14,19,13,13.80
2012,10,14,19,14,13.80
2012,10,14,19,15,13.80
2012,10,14,19,16,13.80
2012,10,14,19,17,13.80
2012,10,14,19,18,13.80
2012,10,14,19,19,13.80
2012,10,14,19,20,13.80
2012,10,14,19,21,13.80
2012,10,14,19,22,13.70
2012,10,14,19,23,13.70
2012,10,14,19,24,13.70
2012,10,14,19,25,13.70
2012,10,14,19,26,13.70
2012,10,14,19,27,13.70
2012,10,14,19,28,13.70
2012,10,14,19,29,13.70
2012,10,14,19,30,13.70
2012,10,14,19,31,13.70
2012,10,14,19,32,13.70
2012,10,14,19,33,13.70
2012,10,14,19,34,13.70
2012,10,14,19,35,13.70
2012,10,14,19,36,13.70
2012,10,14,19,37,13.70
2012,10,14,19,38,13.70
2012,10,14,19,39,13.70
2012,10,14,19,40,13.70
2012,10,14,19,41,13.70
2012,10,14,19,42,13.70
2012,10,14,19,43,13.70
2012,10,14,19,44,13.70
2012,10,14,19,45,13.70
2012,10,14,19,46,13.70
2012,10,14,19,47,13.70
2012,10,14,19,48,13.70
2012,10,14,19,49,13.70
2012,10,14,19,50,13.70
2012,10,14,19,51,13.70
2012,10,14,19,52,13.70
2012,10,14,19,53,13.70
2012,10,14,19,54,13.70
2012,10,14,19,55,13.70
2012,10,14,19,56,13.70
2012,10,14,19,57,13.70
2012,10,14,19,58,13.70
2012,10,14,19,59,13.70
2012,10,14,20,00,13.70
2012,10,14,20,01,13.70
2012,10,14,20,02,13.70
2012,10,14,20,03,13.70
2012,10,14,20,04,13.70
2012,10,14,20,05,13.70
2012,10,14,20,06,13.70
2012,10,14,20,07,13.70
2012,10,14,20,08,13.70
2012,10,14,20,09,13.70
2012,10,14,20,10,13.70
2012,10,14,20,11,13.70
2012,10,14,20,12,13.70
2012,10,14,20,13,13.70
2012,10,14,20,14,13.70
2012,10,14,20,15,13.70
2012,10,14,20,16,13.70
2012,10,14,20,17,13.70
2012,10,14,20,18,13.70
2012,10,14,20,19,13.70
2012,10,14,20,20,13.70
2012,10,14,20,21,13.70
2012,10,14,20,22,13.70
2012,10,14,20,23,13.70
2012,10,14,20,24,13.70
2012,10,14,20,25,13.70
2012,10,14,20,26,13.70
2012,10,14,20,27,13.70
2012,10,14,20,28,13.70
2012,10,14,20,29,13.70
2012,10,14,20,30,13.70
2012,10,14,20,31,13.70
2012,10,14,20,32,13.70
2012,10,14,20,33,13.70
2012,10,14,20,34,13.70
2012,10,14,20,35,13.70
2012,10,14,20,36,13.70
2012,10,14,20,37,13.70
2012,10,14,20,38,13.70
2012,10,14,20,39,13.70
2012,10,14,20,40,13.70
2012,10,14,20,41,13.70
2012,10,14,20,42,13.70
2012,10,14,20,43,13.70
2012,10,14,20,44,13.70
2012,10,14,20,45,13.70
2012,10,14,20,46,13.70
2012,10,14,20,47,13.70
2012,10,14,20,48,13.70
2012,10,14,20,49,13.70
2012,10,14,20,50,13.70
2012,10,14,20,51,13.70
2012,10,14,20,52,13.70
2012,10,14,20,53,13.70
2012,10,14,20,54,13.70
2012,10,14,20,55,13.70
2012,10,14,20,56,13.70
2012,10,14,20,57,13.70
2012,10,14,20,58,13.70
2012,10,14,20,59,13.70
2012,10,14,21,00,13.70
2012,10,14,21,01,13.70
2012,10,14,21,02,13.70
2012,10,14,21,03,13.70
2012,10,14,21,04,13.70
2012,10,14,21,05,13.70
2012,10,14,21,06,13.70
2012,10,14,21,07,13.70
2012,10,14,21,08,13.70
2012,10,14,21,09,13.70
2012,10,14,21,10,13.70
2012,10,14,21,11,13.70
2012,10,14,21,12,13.70
2012,10,14,21,13,13.70
2012,10,14,21,14,13.70
2012,10,14,21,15,13.70
2012,10,14,21,16,13.70
2012,10,14,21,17,13.60
2012,10,14,21,18,13.60
2012,10,14,21,19,13.50
2012,10,14,21,20,13.50
2012,10,14,21,21,13.40
2012,10,14,21,22,13.40
2012,10,14,21,23,13.30
2012,10,14,21,24,13.30
2012,10,14,21,25,13.30
2012,10,14,21,26,13.30
2012,10,14,21,27,13.30
2012,10,14,21,28,13.30
2012,10,14,21,29,13.20
2012,10,14,21,30,13.20
2012,10,14,21,31,13.20
2012,10,14,21,32,13.20
2012,10,14,21,33,13.20
2012,10,14,21,34,13.20
2012,10,14,21,35,13.20
2012,10,14,21,36,13.20
2012,10,14,21,37,13.20
2012,10,14,21,38,13.20
2012,10,14,21,39,13.10
2012,10,14,21,40,13.10
2012,10,14,21,41,13.10
2012,10,14,21,42,13.10
2012,10,14,21,43,13.10
2012,10,14,21,44,13.10
2012,10,14,21,45,13.10
2012,10,14,21,46,13.00
2012,10,14,21,47,13.00
2012,10,14,21,48,13.00
2012,10,14,21,49,13.00
2012,10,14,21,50,13.00
2012,10,14,21,51,13.00
2012,10,14,21,52,12.90
2012,10,14,21,53,12.90
2012,10,14,21,54,12.90
2012,10,14,21,55,12.90
2012,10,14,21,56,12.90
2012,10,14,21,57,12.90
2012,10,14,21,58,12.90
2012,10,14,21,59,12.90
2012,10,14,22,00,12.80
2012,10,14,22,01,12.80
2012,10,14,22,02,12.80
2012,10,14,22,03,12.80
2012,10,14,22,04,12.80
2012,10,14,22,05,12.80
2012,10,14,22,06,12.80